User: anonymous   Login
Location: Unspecified
(0.0000°N, 0.0000°E)
Time: 18:54:27
(UTC+01:00)
Language:

ARIANE DEB (SPELDA) - Orbit

View from above orbital plane
View from above orbital plane
View from above satellite
View from above satellite

Ground track
Ground track

The orbit data is extracted from the following two-line orbital elements,

1 27402U 02015D   16040.02652632  .00000199  00000-0  21434-3 0  9996
2 27402   3.8589 341.7143 7083100 242.0105  31.5285  2.47947988121776
Epoch (UTC): 09 February 2016 00:38:11
Eccentricity: 0.7083100
inclination: 3.8589°
perigee height: 348 km
apogee height: 33012 km
right ascension of ascending node: 341.7143°
argument of perigee: 242.0105°
revolutions per day: 2.47947988
mean anomaly at epoch: 31.5285°
orbit number at epoch: 12177

The dashed part of the orbit path shows where the satellite is in the earth's shadow,  

DLR